TimeEDT,TemperatureF,Dew PointF,Humidity,Sea Level PressureIn,VisibilityMPH,Wind Direction,Wind SpeedMPH,Gust SpeedMPH,PrecipitationIn,Events,Conditions,WindDirDegrees,DateUTC
12:04 AM,69.8,64.4,83,29.79,10.0,SE,4.6,-,N/A,,Overcast,130,2013-06-28 04:04:00
12:51 AM,68.0,64.0,87,29.76,10.0,SE,6.9,-,N/A,,Overcast,140,2013-06-28 04:51:00
1:51 AM,66.9,63.0,87,29.73,10.0,SSE,6.9,-,0.00,Rain,Light Rain,150,2013-06-28 05:51:00
2:51 AM,64.9,63.0,93,29.70,8.0,ESE,3.5,-,0.03,Rain,Light Rain,120,2013-06-28 06:51:00
3:12 AM,64.4,62.6,94,29.71,5.0,ESE,4.6,-,0.05,Rain,Rain,110,2013-06-28 07:12:00
3:20 AM,64.4,62.6,94,29.70,7.0,SE,5.8,-,0.06,Rain,Light Rain,130,2013-06-28 07:20:00
3:51 AM,64.0,63.0,96,29.67,9.0,East,3.5,-,0.08,Rain,Light Rain,100,2013-06-28 07:51:00
4:06 AM,64.4,62.6,94,29.66,8.0,NE,4.6,-,0.02,Rain,Light Rain,40,2013-06-28 08:06:00
4:34 AM,64.4,62.6,94,29.66,9.0,NE,5.8,-,0.06,Rain,Light Rain,40,2013-06-28 08:34:00
4:51 AM,63.0,63.0,100,29.63,8.0,NE,6.9,-,0.07,Rain,Light Rain,40,2013-06-28 08:51:00
5:28 AM,62.6,62.6,100,29.62,2.5,NE,8.1,-,0.21,Rain,Heavy Rain,40,2013-06-28 09:28:00
5:40 AM,62.6,62.6,100,29.63,2.5,NNE,6.9,-,0.31,Rain,Heavy Rain,30,2013-06-28 09:40:00
5:47 AM,62.6,62.6,100,29.63,2.0,NNE,5.8,-,0.41,Rain,Heavy Rain,30,2013-06-28 09:47:00
5:51 AM,62.1,61.0,96,29.62,2.0,Variable,5.8,-,0.43,Rain,Heavy Rain,0,2013-06-28 09:51:00
5:56 AM,62.6,60.8,94,29.64,2.5,NE,4.6,-,0.03,Rain,Heavy Rain,50,2013-06-28 09:56:00
6:03 AM,62.6,60.8,94,29.64,3.0,ENE,4.6,-,0.07,Rain,Heavy Rain,60,2013-06-28 10:03:00
6:08 AM,62.6,62.6,100,29.64,2.5,NE,3.5,-,0.10,Rain,Heavy Rain,50,2013-06-28 10:08:00
6:10 AM,62.6,62.6,100,29.64,3.0,NE,3.5,-,0.10,Rain,Heavy Rain,50,2013-06-28 10:10:00
6:27 AM,62.6,62.6,100,29.63,2.5,Calm,Calm,-,0.16,Rain,Rain,0,2013-06-28 10:27:00
6:32 AM,62.6,62.6,100,29.62,3.0,East,3.5,-,0.17,Rain,Rain,80,2013-06-28 10:32:00
6:49 AM,62.6,60.8,94,29.62,2.5,ENE,5.8,-,0.25,Rain,Heavy Rain,60,2013-06-28 10:49:00
6:50 AM,62.1,61.0,96,29.61,2.5,ENE,4.6,-,0.26,Rain,Heavy Rain,70,2013-06-28 10:50:00
7:01 AM,62.6,60.8,94,29.62,4.0,East,4.6,-,0.03,Rain,Light Rain,80,2013-06-28 11:01:00
7:12 AM,62.6,60.8,94,29.61,4.0,East,4.6,-,0.04,Rain,Light Rain,80,2013-06-28 11:12:00
7:37 AM,62.6,60.8,94,29.60,2.0,ESE,4.6,-,0.08,Rain,Rain,120,2013-06-28 11:37:00
7:46 AM,62.6,60.8,94,29.60,8.0,SE,5.8,-,0.08,Rain,Light Rain,130,2013-06-28 11:46:00
7:51 AM,62.1,60.1,93,29.58,6.0,ESE,6.9,-,0.09,Rain,Light Rain,120,2013-06-28 11:51:00
8:17 AM,60.8,59.0,94,29.59,2.0,SE,10.4,-,0.04,Rain,Light Rain,140,2013-06-28 12:17:00
8:27 AM,60.8,59.0,94,29.58,3.0,SE,8.1,-,0.05,Rain,Light Rain,130,2013-06-28 12:27:00
8:51 AM,61.0,59.0,93,29.55,5.0,SE,9.2,-,0.06,Rain,Light Rain,130,2013-06-28 12:51:00
9:15 AM,60.8,59.0,94,29.57,1.8,SSE,5.8,-,0.04,Rain,Rain,160,2013-06-28 13:15:00
9:20 AM,60.8,59.0,94,29.56,2.0,SE,5.8,-,0.05,Rain,Rain,140,2013-06-28 13:20:00
9:24 AM,60.8,60.8,100,29.57,3.0,South,4.6,-,0.05,Rain,Light Rain,190,2013-06-28 13:24:00
9:51 AM,61.0,59.0,93,29.54,8.0,SSE,10.4,-,0.06,Rain,Light Rain,150,2013-06-28 13:51:00
10:31 AM,62.6,59.0,88,29.54,10.0,SE,8.1,-,0.00,,Overcast,140,2013-06-28 14:31:00
10:51 AM,63.0,60.1,90,29.52,10.0,SSE,10.4,-,0.00,,Overcast,150,2013-06-28 14:51:00
11:51 AM,64.9,61.0,87,29.51,10.0,SSE,19.6,26.5,N/A,,Overcast,160,2013-06-28 15:51:00
12:28 PM,66.2,60.8,83,29.51,10.0,SSE,17.3,25.3,N/A,,Overcast,160,2013-06-28 16:28:00
12:51 PM,68.0,62.1,81,29.50,10.0,SSE,12.7,20.7,N/A,,Overcast,160,2013-06-28 16:51:00
1:51 PM,72.0,64.0,76,29.49,10.0,SSE,11.5,21.9,N/A,,Mostly Cloudy,160,2013-06-28 17:51:00
2:01 PM,73.4,64.4,73,29.50,10.0,South,10.4,23.0,N/A,,Overcast,180,2013-06-28 18:01:00
2:51 PM,75.0,64.9,71,29.48,10.0,South,18.4,21.9,N/A,,Partly Cloudy,170,2013-06-28 18:51:00
3:51 PM,77.0,64.9,66,29.47,10.0,South,16.1,20.7,N/A,,Partly Cloudy,170,2013-06-28 19:51:00
4:51 PM,77.0,64.0,64,29.47,10.0,SSW,9.2,-,N/A,,Partly Cloudy,200,2013-06-28 20:51:00
5:51 PM,75.9,62.1,62,29.49,10.0,SSW,9.2,-,N/A,,Partly Cloudy,200,2013-06-28 21:51:00
6:51 PM,72.0,64.0,76,29.51,10.0,NNW,3.5,-,N/A,,Overcast,330,2013-06-28 22:51:00
7:51 PM,68.0,63.0,84,29.53,10.0,Calm,Calm,-,N/A,,Overcast,0,2013-06-28 23:51:00
8:51 PM,66.9,62.1,84,29.54,8.0,Calm,Calm,-,0.00,Rain,Light Rain,0,2013-06-29 00:51:00
9:36 PM,64.4,62.6,94,29.56,10.0,NNW,4.6,-,0.01,,Mostly Cloudy,330,2013-06-29 01:36:00
9:51 PM,64.0,61.0,90,29.56,10.0,NW,4.6,-,0.01,,Overcast,320,2013-06-29 01:51:00
10:30 PM,64.4,62.6,94,29.56,10.0,Calm,Calm,-,N/A,,Overcast,0,2013-06-29 02:30:00
10:51 PM,64.9,62.1,90,29.55,10.0,Calm,Calm,-,N/A,,Overcast,0,2013-06-29 02:51:00
11:33 PM,64.4,60.8,88,29.55,10.0,NNW,3.5,-,N/A,,Overcast,330,2013-06-29 03:33:00
11:51 PM,64.0,61.0,90,29.55,10.0,Calm,Calm,-,N/A,,Overcast,0,2013-06-29 03:51:00